QPF
0.00 0.00 0.00 0.01 0.07 0.19 0.23 0.19 0.05 0.01 0.00 0.00 0.00 0.00 0.01 0.07 0.09 0.10 0.11 0.06 0.03 0.03 0.07 0.01 0.00 0.00 0.00 0.00 0.00 0.01 0.04 0.01 0.00 0.01 0.03 0.01 0.00 0.00 0.01 0.01 0.01 0.00 0.00
0.00 0.00 0.00 0.00 0.00 0.03 0.05 0.10 0.03 0.00 0.00 0.00 0.00 0.07 0.09 0.08 0.11 0.15 0.16 0.13 0.04 0.02 0.13 0.07 0.03 0.00 0.00 0.00 0.00 0.00 0.07 0.01 0.00 0.03 0.08 0.08 0.05 0.02 0.00 0.00 0.00 0.00 0.00
0.00 0.00 0.00 0.00 0.00 0.00 0.00 0.01 0.00 0.00 0.00 0.00 0.03 0.06 0.08 0.08 0.18 0.20 0.10 0.01 0.01 0.06 0.05 0.01 0.00 0.00 0.00 0.00 0.00 0.00 0.00 0.01 0.06 0.02 0.02 0.02 0.08 0.07 0.02 0.00 0.00 0.00 0.00
0.00 0.00 0.00 0.00 0.00 0.00 0.00 0.00 0.00 0.00 0.00 0.00 0.00 0.08 0.13 0.12 0.19 0.18 0.04 0.00 0.00 0.00 0.00 0.00 0.00 0.00 0.00 0.00 0.00 0.00 0.00 0.00 0.11 0.05 0.01 0.00 0.00 0.03 0.07 0.02 0.00 0.00 0.00
0.00 0.00 0.00 0.00 0.00 0.00 0.00 0.00 0.00 0.00 0.00 0.00 0.00 0.03 0.01 0.04 0.13 0.15 0.10 0.02 0.00 0.00 0.00 0.00 0.00 0.00 0.00 0.00 0.00 0.00 0.00 0.00 0.05 0.07 0.05 0.03 0.00 0.00 0.02 0.04 0.00 0.00 0.00
0.00 0.00 0.00 0.00 0.00 0.00 0.00 0.00 0.00 0.00 0.00 0.00 0.00 0.00 0.00 0.04 0.09 0.09 0.04 0.06 0.04 0.01 0.00 0.00 0.00 0.00 0.00 0.00 0.00 0.00 0.00 0.00 0.00 0.03 0.00 0.04 0.01 0.00 0.00 0.00 0.00 0.00 0.00
0.00 0.00 0.00 0.00 0.00 0.00 0.00 0.00 0.00 0.00 0.00 0.00 0.00 0.00 0.00 0.00 0.03 0.04 0.03 0.10 0.11 0.11 0.01 0.00 0.00 0.00 0.00 0.00 0.00 0.00 0.00 0.00 0.00 0.00 0.00 0.02 0.00 0.00 0.00 0.00 0.00 0.00 0.00
0.00 0.00 0.00 0.00 0.00 0.00 0.00 0.00 0.00 0.00 0.00 0.00 0.00 0.00 0.00 0.00 0.02 0.08 0.11 0.13 0.18 0.12 0.05 0.00 0.00 0.00 0.00 0.00 0.00 0.00 0.00 0.00 0.00 0.00 0.00 0.02 0.01 0.00 0.00 0.00 0.00 0.02 0.01
0.00 0.00 0.00 0.00 0.00 0.00 0.00 0.00 0.00 0.00 0.00 0.00 0.00 0.00 0.01 0.01 0.10 0.10 0.08 0.10 0.10 0.07 0.03 0.01 0.00 0.00 0.00 0.00 0.00 0.00 0.00 0.00 0.00 0.00 0.00 0.05 0.06 0.00 0.00 0.00 0.00 0.02 0.07
0.00 0.00 0.00 0.00 0.00 0.00 0.00 0.00 0.00 0.00 0.00 0.00 0.00 0.01 0.05 0.02 0.02 0.01 0.01 0.07 0.13 0.05 0.08 0.06 0.01 0.01 0.00 0.00 0.00 0.00 0.00 0.00 0.00 0.00 0.00 0.00 0.06 0.06 0.02 0.00 0.00 0.00 0.00
0.00 0.00 0.00 0.00 0.00 0.00 0.00 0.00 0.00 0.00 0.00 0.00 0.00 0.03 0.03 0.04 0.01 0.01 0.03 0.04 0.03 0.04 0.05 0.02 0.02 0.09 0.10 0.02 0.00 0.01 0.02 0.01 0.03 0.01 0.00 0.00 0.01 0.05 0.07 0.03 0.01 0.00 0.00
0.00 0.00 0.00 0.00 0.00 0.00 0.00 0.00 0.00 0.00 0.00 0.00 0.00 0.00 0.00 0.00 0.00 0.00 0.00 0.00 0.00 0.00 0.01 0.00 0.01 0.03 0.04 0.11 0.17 0.13 0.12 0.06 0.09 0.11 0.05 0.04 0.09 0.05 0.08 0.03 0.00 0.00 0.01
0.00 0.00 0.00 0.00 0.00 0.00 0.00 0.00 0.00 0.00 0.00 0.00 0.00 0.00 0.00 0.00 0.00 0.00 0.00 0.00 0.00 0.00 0.00 0.00 0.00 0.00 0.01 0.05 0.07 0.11 0.24 0.21 0.16 0.15 0.11 0.09 0.07 0.05 0.10 0.10 0.11 0.12 0.11
0.00 0.00 0.00 0.00 0.00 0.00 0.00 0.00 0.02 0.01 0.01 0.00 0.00 0.00 0.00 0.00 0.00 0.00 0.00 0.00 0.00 0.00 0.00 0.00 0.00 0.00 0.00 0.00 0.00 0.00 0.02 0.06 0.08 0.04 0.16 0.20 0.15 0.15 0.15 0.12 0.11 0.13 0.07
0.00 0.00 0.00 0.00 0.00 0.00 0.00 0.00 0.01 0.15 0.14 0.12 0.06 0.02 0.00 0.00 0.00 0.00 0.00 0.00 0.00 0.00 0.00 0.00 0.00 0.00 0.00 0.00 0.00 0.00 0.00 0.00 0.00 0.00 0.00 0.01 0.02 0.03 0.03 0.03 0.04 0.02 0.01
0.00 0.00 0.00 0.00 0.00 0.00 0.00 0.01 0.04 0.17 0.21 0.16 0.06 0.00 0.00 0.00 0.00 0.00 0.00 0.00 0.00 0.00 0.00 0.00 0.00 0.00 0.00 0.00 0.00 0.00 0.00 0.00 0.00 0.00 0.00 0.00 0.00 0.00 0.00 0.00 0.00 0.00 0.00
0.00 0.00 0.00 0.00 0.00 0.00 0.00 0.02 0.03 0.05 0.10 0.13 0.10 0.02 0.00 0.00 0.00 0.00 0.00 0.00 0.00 0.00 0.00 0.00 0.00 0.00 0.00 0.00 0.00 0.00 0.00 0.00 0.00 0.00 0.00 0.00 0.00 0.00 0.00 0.00 0.00 0.00 0.00
0.00 0.00 0.00 0.00 0.00 0.00 0.03 0.15 0.08 0.01 0.02 0.05 0.08 0.02 0.00 0.00 0.00 0.00 0.00 0.00 0.00 0.00 0.00 0.00 0.00 0.00 0.00 0.00 0.00 0.00 0.00 0.00 0.00 0.00 0.00 0.00 0.00 0.00 0.00 0.00 0.00 0.00 0.00
0.00 0.00 0.00 0.00 0.00 0.01 0.09 0.18 0.08 0.01 0.00 0.00 0.01 0.01 0.00 0.00 0.00 0.00 0.00 0.00 0.00 0.00 0.00 0.00 0.00 0.00 0.00 0.00 0.00 0.00 0.00 0.00 0.00 0.00 0.00 0.00 0.00 0.00 0.00 0.00 0.00 0.00 0.00
0.00 0.00 0.00 0.00 0.01 0.08 0.13 0.16 0.08 0.03 0.01 0.00 0.01 0.01 0.00 0.00 0.00 0.00 0.00 0.00 0.00 0.00 0.00 0.00 0.00 0.00 0.00 0.00 0.00 0.00 0.00 0.00 0.00 0.00 0.00 0.00 0.00 0.00 0.00 0.00 0.00 0.00 0.00
0.00 0.00 0.00 0.01 0.05 0.07 0.10 0.06 0.01 0.00 0.00 0.02 0.02 0.01 0.00 0.00 0.00 0.00 0.00 0.00 0.00 0.00 0.00 0.00 0.00 0.00 0.00 0.00 0.00 0.00 0.00 0.00 0.00 0.00 0.00 0.00 0.00 0.00 0.00 0.00 0.00 0.00 0.00
0.00 0.00 0.00 0.01 0.01 0.01 0.02 0.00 0.00 0.00 0.00 0.01 0.01 0.00 0.00 0.00 0.00 0.00 0.00 0.00 0.00 0.00 0.00 0.00 0.00 0.00 0.00 0.00 0.00 0.00 0.00 0.00 0.00 0.00 0.00 0.00 0.00 0.00 0.00 0.00 0.00 0.00 0.00
0.00 0.00 0.00 0.00 0.00 0.00 0.00 0.00 0.01 0.04 0.05 0.03 0.01 0.00 0.00 0.00 0.00 0.00 0.00 0.00 0.00 0.00 0.00 0.00 0.00 0.00 0.00 0.00 0.00 0.00 0.00 0.00 0.00 0.00 0.00 0.00 0.00 0.00 0.00 0.00 0.00 0.00 0.00
0.00 0.00 0.00 0.00 0.00 0.00 0.00 0.00 0.05 0.08 0.05 0.03 0.02 0.01 0.01 0.00 0.00 0.00 0.00 0.00 0.00 0.00 0.00 0.00 0.00 0.00 0.00 0.00 0.00 0.00 0.00 0.00 0.00 0.00 0.00 0.00 0.00 0.00 0.00 0.00 0.00 0.00 0.00
0.00 0.00 0.00 0.00 0.00 0.00 0.01 0.02 0.06 0.08 0.08 0.08 0.05 0.01 0.00 0.00 0.00 0.00 0.00 0.00 0.00 0.00 0.00 0.00 0.00 0.00 0.00 0.00 0.00 0.00 0.00 0.00 0.00 0.00 0.00 0.00 0.00 0.00 0.00 0.00 0.00 0.00 0.00
0.00 0.00 0.00 0.00 0.00 0.00 0.02 0.02 0.03 0.05 0.07 0.10 0.04 0.01 0.00 0.00 0.00 0.00 0.00 0.00 0.00 0.00 0.00 0.00 0.00 0.00 0.00 0.00 0.00 0.00 0.00 0.00 0.00 0.00 0.00 0.00 0.00 0.00 0.00 0.00 0.00 0.00 0.00
MSLP
1010.66 1011.38 1011.81 1012.29 1012.74 1013.32 1013.93 1013.99 1013.62 1015.58 1015.98 1016.11 1016.07 1016.24 1016.08 1016.26 1016.12 1016.14 1016.22 1016.59 1017.02 1017.56 1017.88 1017.89 1018.00 1018.24 1018.33 1018.50 1018.61 1018.57 1018.62 1018.30 1018.61 1018.55 1019.02 1018.75 1018.82 1019.06 1019.49 1019.63 1019.81 1019.61 1019.77
1010.43 1011.02 1011.47 1011.92 1012.49 1012.84 1013.36 1013.99 1014.37 1015.23 1015.58 1015.65 1015.61 1015.74 1015.66 1015.76 1015.49 1015.64 1015.97 1016.41 1016.97 1017.19 1017.57 1017.72 1017.70 1017.78 1018.00 1018.37 1018.53 1018.57 1018.44 1018.25 1018.49 1018.36 1018.47 1018.31 1018.69 1018.71 1019.01 1019.35 1019.36 1019.49 1019.33
1009.55 1010.43 1011.15 1011.53 1012.05 1012.50 1012.96 1013.45 1014.23 1014.73 1015.26 1015.40 1015.51 1015.59 1015.45 1015.43 1015.45 1015.74 1016.11 1016.62 1016.79 1017.08 1017.44 1017.53 1017.51 1017.61 1017.92 1017.86 1018.30 1018.43 1018.37 1018.11 1018.34 1018.69 1018.45 1018.39 1018.11 1018.11 1018.54 1018.93 1018.90 1019.04 1019.25
1009.24 1009.91 1010.63 1011.12 1011.70 1012.05 1012.54 1013.01 1013.66 1014.21 1014.67 1014.93 1015.11 1015.11 1014.94 1015.11 1015.36 1015.69 1016.14 1016.26 1016.56 1016.91 1016.85 1017.01 1017.16 1017.39 1017.37 1017.74 1017.91 1018.11 1018.16 1018.29 1018.14 1018.52 1018.49 1018.65 1018.42 1017.94 1018.09 1018.39 1018.40 1018.64 1018.75
1008.55 1009.33 1010.06 1010.63 1011.26 1011.78 1012.10 1012.49 1013.11 1013.69 1014.17 1014.49 1014.68 1014.68 1014.80 1014.82 1015.29 1015.84 1016.08 1016.15 1016.25 1016.24 1016.61 1016.66 1016.89 1017.15 1017.07 1017.40 1017.54 1017.76 1018.00 1017.99 1018.06 1018.02 1018.13 1018.35 1018.33 1018.26 1017.75 1017.43 1017.80 1018.12 1018.20
1008.12 1008.96 1009.81 1010.49 1010.99 1011.40 1011.75 1012.17 1012.81 1013.37 1013.82 1014.17 1014.46 1014.52 1014.61 1014.75 1014.99 1015.33 1015.61 1016.01 1016.06 1016.08 1016.03 1016.34 1016.59 1016.71 1016.71 1017.01 1017.18 1017.43 1017.67 1017.69 1017.87 1018.05 1018.03 1017.98 1017.79 1017.76 1017.71 1017.49 1017.57 1017.37 1017.49
1007.53 1008.34 1009.23 1010.02 1010.55 1011.03 1011.41 1011.93 1012.42 1012.86 1013.26 1013.70 1013.98 1014.15 1014.31 1014.57 1014.55 1014.95 1015.22 1015.56 1015.65 1015.65 1015.77 1015.97 1016.16 1016.33 1016.45 1016.56 1016.79 1017.13 1017.24 1017.38 1017.47 1017.55 1017.59 1017.83 1017.72 1017.77 1017.67 1017.44 1017.23 1017.07 1017.10
1007.07 1007.61 1008.56 1009.55 1010.11 1010.61 1011.11 1011.52 1012.02 1012.45 1012.83 1013.18 1013.44 1013.78 1014.07 1014.27 1014.44 1014.76 1015.30 1015.44 1015.38 1015.45 1015.44 1015.54 1015.53 1015.71 1015.97 1016.11 1016.38 1016.74 1016.87 1016.93 1017.04 1017.15 1017.22 1017.23 1017.60 1017.60 1017.42 1017.23 1017.04 1016.75 1016.69
1006.69 1007.43 1008.24 1009.13 1009.57 1010.03 1010.71 1011.14 1011.64 1012.03 1012.38 1012.77 1013.23 1013.50 1013.71 1013.91 1014.24 1014.88 1014.97 1014.61 1015.28 1015.10 1014.96 1015.09 1015.31 1015.39 1015.54 1015.72 1016.06 1016.23 1016.48 1016.67 1016.75 1016.73 1016.86 1016.91 1017.09 1017.16 1017.29 1017.35 1017.13 1016.77 1016.50
1006.41 1007.12 1007.91 1008.63 1009.23 1009.77 1010.45 1010.96 1011.36 1011.62 1012.03 1012.49 1012.91 1013.15 1013.42 1013.81 1014.08 1014.80 1014.92 1015.01 1014.89 1014.67 1014.79 1014.72 1014.92 1015.10 1015.27 1015.52 1015.76 1015.83 1016.09 1016.29 1016.30 1016.30 1016.47 1016.56 1016.76 1016.91 1017.00 1017.05 1017.02 1016.95 1016.61
1005.96 1006.79 1007.63 1008.35 1009.02 1009.63 1010.19 1010.55 1011.07 1011.43 1011.79 1012.19 1012.65 1013.02 1013.22 1013.50 1013.90 1014.36 1014.62 1014.41 1014.46 1014.53 1014.51 1014.63 1014.71 1014.72 1015.02 1015.29 1015.50 1015.62 1015.65 1015.90 1015.89 1015.93 1016.07 1016.25 1016.38 1016.45 1016.72 1016.80 1016.74 1016.70 1016.74
1005.71 1006.51 1007.37 1008.09 1008.81 1009.37 1009.95 1010.44 1010.90 1011.30 1011.70 1012.14 1012.63 1012.89 1013.16 1013.58 1013.87 1014.17 1014.35 1014.59 1014.79 1014.87 1014.85 1014.86 1014.75 1014.78 1014.93 1014.93 1015.10 1015.20 1015.25 1015.39 1015.39 1015.53 1015.76 1015.76 1015.97 1016.07 1016.23 1016.27 1016.09 1016.02 1016.21
1005.42 1006.13 1006.93 1007.69 1008.38 1009.11 1009.89 1010.46 1010.99 1011.25 1011.66 1012.11 1012.42 1012.80 1013.26 1013.77 1014.03 1014.35 1014.64 1014.92 1015.03 1015.05 1015.01 1015.01 1015.09 1015.08 1014.98 1014.98 1014.90 1015.11 1014.99 1014.94 1014.96 1015.16 1015.25 1015.33 1015.55 1015.57 1015.64 1015.75 1015.92 1015.96 1016.05
1005.12 1005.89 1006.63 1007.21 1008.23 1009.07 1009.75 1010.37 1010.96 1011.33 1011.92 1012.15 1012.59 1013.18 1013.57 1013.98 1014.47 1014.83 1015.07 1015.30 1015.47 1015.42 1015.35 1015.33 1015.39 1015.34 1015.38 1015.34 1015.32 1015.26 1015.07 1015.03 1015.02 1015.04 1015.08 1015.13 1015.20 1015.29 1015.33 1015.41 1015.55 1015.72 1015.72
1004.93 1005.51 1006.26 1007.13 1008.10 1008.77 1009.43 1010.30 1010.98 1011.69 1012.12 1013.12 1013.61 1013.97 1014.41 1014.74 1014.75 1015.06 1015.33 1015.61 1015.73 1015.85 1015.83 1015.69 1015.69 1015.77 1015.65 1015.57 1015.53 1015.40 1015.35 1015.35 1015.37 1015.42 1015.35 1015.42 1015.57 1015.56 1015.53 1015.48 1015.42 1015.55 1015.57
1004.95 1005.59 1006.31 1007.02 1007.87 1008.73 1009.59 1010.48 1011.37 1012.01 1012.53 1012.47 1014.16 1014.61 1014.94 1015.18 1015.43 1015.62 1015.76 1015.84 1016.03 1016.17 1016.18 1016.17 1016.15 1016.12 1016.04 1016.37 1016.13 1015.83 1015.62 1015.55 1015.49 1015.46 1015.57 1015.66 1015.74 1015.84 1015.90 1015.79 1015.76 1015.90 1015.71
1004.91 1005.51 1006.19 1007.04 1008.12 1008.93 1009.77 1010.36 1011.06 1011.73 1012.31 1012.41 1013.40 1014.45 1014.93 1015.33 1015.64 1015.67 1015.77 1016.22 1016.39 1016.46 1016.48 1016.72 1016.73 1016.73 1016.74 1016.84 1016.73 1016.32 1015.85 1015.78 1015.88 1015.90 1015.83 1015.68 1015.48 1016.03 1015.96 1015.87 1015.83 1015.69 1015.73
1005.17 1005.74 1006.45 1007.55 1008.53 1009.41 1010.27 1011.06 1011.67 1012.54 1012.40 1012.99 1013.67 1014.15 1014.91 1015.49 1015.69 1015.79 1015.84 1016.19 1016.48 1016.67 1016.72 1017.04 1017.20 1017.17 1017.48 1017.32 1017.14 1016.83 1016.32 1016.01 1015.98 1015.99 1015.97 1015.94 1016.09 1016.52 1016.33 1016.00 1015.73 1015.57 1015.38
1005.26 1006.01 1006.92 1007.71 1008.66 1009.42 1010.37 1011.09 1011.74 1011.93 1013.35 1014.29 1013.63 1014.27 1015.11 1015.64 1015.79 1015.82 1015.92 1016.18 1016.45 1016.69 1016.87 1017.24 1017.72 1017.72 1017.79 1018.14 1017.86 1017.19 1016.67 1016.43 1016.31 1016.24 1016.21 1016.25 1016.29 1017.01 1016.98 1016.34 1015.58 1015.20 1014.87
1005.65 1006.25 1007.07 1007.96 1008.59 1009.61 1010.26 1010.41 1010.65 1010.54 1011.91 1013.04 1014.18 1014.70 1015.29 1015.75 1015.79 1015.94 1015.98 1016.21 1016.33 1016.73 1017.32 1017.77 1018.32 1018.49 1018.35 1018.51 1018.43 1018.05 1017.21 1016.83 1016.43 1016.45 1016.49 1016.69 1017.01 1017.10 1017.06 1016.73 1016.06 1015.35 1014.71
1006.18 1006.77 1007.34 1007.83 1008.63 1009.44 1009.98 1010.61 1011.27 1011.80 1012.54 1012.99 1013.97 1015.01 1015.39 1015.85 1015.82 1016.04 1016.19 1016.26 1016.49 1017.04 1017.59 1017.96 1018.43 1018.59 1018.88 1018.76 1018.82 1018.54 1017.72 1017.40 1016.93 1016.50 1016.55 1016.79 1017.25 1017.25 1017.07 1016.60 1016.08 1015.84 1015.81
1006.71 1007.19 1007.51 1007.99 1008.75 1009.50 1009.95 1010.45 1011.11 1011.93 1012.43 1013.31 1014.11 1014.82 1015.45 1015.54 1015.52 1015.99 1016.16 1016.33 1016.73 1017.15 1017.75 1018.10 1018.22 1018.52 1018.65 1019.05 1019.05 1018.83 1018.41 1018.18 1017.42 1017.13 1017.08 1017.20 1017.54 1017.41 1017.18 1017.13 1016.81 1016.19 1015.61
1006.79 1007.35 1007.63 1008.09 1008.68 1009.38 1009.86 1010.37 1011.26 1011.89 1012.70 1013.24 1014.18 1014.86 1015.14 1015.11 1015.40 1015.45 1015.73 1016.31 1016.80 1016.99 1017.37 1017.78 1017.90 1018.20 1018.49 1018.75 1019.07 1018.88 1018.54 1018.29 1017.59 1017.29 1017.43 1017.60 1017.53 1017.49 1017.22 1017.33 1017.03 1016.22 1015.69
1006.98 1007.40 1007.83 1008.31 1008.86 1009.47 1009.97 1010.60 1011.26 1011.83 1012.39 1012.92 1013.63 1014.29 1014.73 1015.05 1015.42 1015.62 1015.99 1016.26 1016.59 1016.91 1017.39 1017.79 1018.02 1018.24 1018.47 1018.70 1018.69 1018.46 1018.09 1018.12 1017.84 1017.73 1017.38 1017.44 1017.41 1017.60 1017.41 1016.92 1016.46 1016.57 1016.48
1007.10 1007.36 1007.81 1008.36 1008.93 1009.63 1010.22 1010.79 1011.23 1011.87 1012.44 1013.23 1013.77 1014.35 1014.77 1015.31 1015.76 1016.10 1016.40 1016.55 1016.92 1017.18 1017.41 1017.81 1018.20 1018.35 1018.47 1019.01 1019.33 1019.40 1018.73 1018.36 1018.06 1017.43 1017.31 1017.19 1017.03 1016.88 1016.62 1016.69 1016.77 1016.67 1016.37
1007.03 1007.55 1007.94 1008.59 1009.07 1009.55 1010.04 1010.70 1011.33 1011.98 1012.70 1013.47 1013.88 1014.26 1014.49 1015.06 1015.56 1016.14 1016.87 1017.37 1017.35 1017.53 1017.94 1018.25 1018.51 1018.86 1019.23 1019.35 1019.47 1019.54 1019.20 1019.08 1018.55 1017.65 1017.03 1017.03 1017.27 1017.44 1016.95 1016.93 1016.76 1016.68 1016.45
Thickness
5794 5788 5785 5781 5775 5770 5763 5764 5752 5751 5747 5745 5750 5753 5757 5758 5760 5760 5760 5758 5754 5750 5748 5749 5749 5747 5747 5747 5748 5750 5749 5752 5751 5748 5740 5745 5745 5744 5741 5739 5738 5740 5739
5789 5786 5783 5779 5772 5769 5768 5761 5758 5752 5748 5752 5756 5759 5761 5760 5763 5762 5760 5756 5752 5750 5749 5748 5750 5750 5750 5748 5748 5748 5749 5751 5750 5745 5744 5738 5740 5744 5744 5742 5742 5741 5742
5792 5786 5781 5779 5775 5771 5768 5765 5759 5757 5755 5756 5757 5759 5762 5762 5761 5760 5757 5754 5752 5748 5747 5746 5747 5749 5749 5752 5750 5750 5750 5748 5750 5748 5745 5734 5736 5743 5745 5744 5746 5744 5743
5794 5789 5783 5780 5776 5774 5772 5769 5766 5762 5760 5760 5760 5760 5760 5757 5758 5758 5754 5753 5749 5747 5747 5746 5747 5748 5751 5752 5754 5753 5752 5749 5748 5748 5750 5747 5747 5742 5737 5745 5746 5747 5747
5799 5791 5786 5784 5781 5778 5775 5774 5770 5766 5764 5764 5763 5762 5759 5762 5758 5754 5753 5752 5750 5749 5747 5747 5747 5749 5752 5753 5755 5755 5753 5753 5750 5752 5751 5750 5749 5748 5747 5743 5742 5748 5751
5799 5793 5789 5785 5782 5780 5778 5776 5771 5768 5768 5765 5764 5761 5760 5759 5758 5756 5754 5750 5750 5750 5750 5749 5749 5751 5754 5755 5756 5756 5755 5756 5755 5753 5753 5750 5750 5748 5747 5745 5743 5748 5754
5801 5796 5789 5784 5782 5780 5779 5777 5774 5771 5771 5768 5767 5765 5764 5761 5760 5758 5755 5752 5751 5752 5752 5752 5753 5754 5755 5757 5757 5757 5758 5758 5757 5757 5756 5756 5755 5753 5751 5750 5749 5749 5755
5804 5801 5794 5787 5783 5781 5780 5778 5775 5772 5772 5771 5770 5769 5766 5764 5763 5759 5754 5753 5753 5753 5754 5755 5757 5758 5759 5760 5759 5760 5760 5761 5760 5760 5760 5760 5757 5757 5756 5754 5753 5751 5753
5802 5798 5794 5789 5786 5785 5783 5781 5778 5776 5775 5773 5773 5771 5771 5769 5764 5758 5755 5755 5753 5756 5759 5759 5761 5762 5762 5763 5763 5763 5762 5762 5762 5763 5762 5762 5761 5761 5759 5756 5756 5754 5746
5800 5798 5794 5791 5789 5787 5784 5782 5781 5779 5777 5776 5775 5774 5774 5770 5767 5755 5755 5757 5757 5760 5761 5763 5765 5765 5766 5766 5765 5766 5765 5763 5765 5765 5764 5763 5763 5761 5761 5759 5758 5757 5755
5800 5797 5792 5792 5789 5787 5785 5784 5781 5780 5778 5778 5776 5774 5774 5773 5769 5762 5759 5762 5763 5765 5765 5766 5767 5768 5767 5767 5766 5766 5766 5764 5765 5766 5765 5764 5764 5763 5761 5760 5760 5758 5756
5798 5797 5792 5791 5788 5785 5784 5781 5781 5778 5777 5777 5775 5773 5773 5771 5768 5766 5765 5764 5762 5764 5765 5767 5768 5769 5768 5769 5768 5768 5769 5767 5767 5767 5765 5766 5765 5764 5763 5762 5762 5762 5761
5801 5799 5794 5790 5789 5785 5781 5779 5778 5777 5776 5775 5774 5773 5770 5766 5766 5766 5764 5762 5760 5762 5764 5765 5765 5765 5767 5768 5770 5768 5769 5769 5770 5768 5768 5768 5766 5765 5765 5764 5761 5761 5760
5803 5798 5794 5792 5789 5785 5782 5780 5777 5776 5771 5771 5770 5765 5763 5763 5760 5759 5759 5757 5756 5757 5759 5760 5761 5762 5763 5763 5764 5765 5767 5768 5768 5768 5768 5768 5767 5765 5765 5764 5762 5760 5759
5803 5801 5796 5791 5788 5786 5785 5781 5777 5772 5769 5759 5755 5754 5753 5752 5754 5753 5753 5752 5751 5751 5752 5754 5754 5754 5756 5759 5759 5760 5760 5760 5759 5760 5762 5762 5761 5761 5761 5760 5759 5757 5755
5801 5799 5799 5794 5789 5785 5781 5776 5770 5765 5763 5764 5747 5746 5746 5745 5743 5744 5745 5746 5746 5745 5745 5746 5747 5747 5749 5745 5748 5751 5754 5754 5754 5754 5755 5755 5754 5752 5750 5750 5750 5749 5748
5802 5800 5797 5792 5785 5781 5775 5772 5768 5765 5762 5762 5754 5745 5742 5741 5740 5741 5740 5737 5736 5738 5738 5736 5737 5738 5739 5737 5739 5742 5747 5747 5745 5745 5745 5747 5750 5744 5744 5744 5741 5740 5738
5796 5795 5792 5784 5778 5773 5765 5759 5753 5748 5751 5748 5744 5741 5737 5734 5735 5735 5735 5734 5733 5732 5732 5729 5728 5729 5727 5727 5729 5732 5737 5739 5738 5737 5736 5736 5735 5730 5730 5732 5733 5732 5732
5798 5792 5786 5780 5773 5767 5760 5753 5745 5743 5731 5723 5733 5733 5728 5726 5727 5728 5729 5729 5728 5727 5726 5722 5718 5719 5719 5714 5715 5722 5726 5726 5726 5728 5728 5726 5725 5716 5715 5720 5725 5726 5726
5793 5787 5781 5776 5771 5762 5755 5750 5742 5735 5727 5714 5713 5714 5716 5718 5721 5722 5723 5724 5724 5720 5715 5711 5706 5704 5707 5704 5704 5707 5714 5714 5717 5717 5715 5712 5708 5705 5705 5707 5710 5713 5717
5783 5780 5776 5771 5764 5758 5751 5742 5734 5724 5713 5703 5697 5697 5706 5708 5714 5716 5715 5716 5715 5710 5705 5703 5698 5697 5693 5694 5692 5693 5700 5701 5703 5706 5705 5703 5697 5695 5696 5699 5703 5702 5698
5772 5770 5767 5763 5758 5752 5747 5740 5732 5721 5707 5694 5693 5694 5697 5702 5709 5708 5708 5708 5705 5701 5695 5692 5692 5689 5687 5681 5680 5681 5683 5683 5688 5688 5689 5688 5683 5683 5683 5682 5681 5685 5688
5766 5762 5760 5754 5749 5745 5741 5732 5724 5717 5708 5701 5696 5694 5698 5703 5703 5705 5704 5700 5696 5695 5690 5686 5684 5681 5678 5675 5669 5670 5671 5671 5676 5677 5674 5670 5669 5668 5670 5666 5666 5672 5674
5756 5756 5751 5742 5737 5734 5732 5726 5717 5712 5708 5705 5701 5699 5697 5697 5697 5697 5694 5693 5690 5687 5682 5677 5674 5671 5668 5665 5664 5666 5667 5663 5663 5661 5663 5659 5658 5654 5654 5657 5658 5655 5653
5749 5748 5744 5737 5730 5723 5719 5717 5714 5709 5705 5698 5693 5689 5687 5687 5685 5684 5683 5682 5680 5676 5673 5668 5662 5660 5658 5652 5647 5644 5649 5651 5650 5653 5653 5651 5650 5649 5648 5646 5642 5640 5640
5741 5737 5735 5729 5724 5720 5716 5712 5708 5704 5698 5691 5687 5685 5686 5684 5681 5677 5670 5661 5662 5661 5657 5653 5650 5645 5640 5637 5633 5630 5630 5629 5631 5637 5640 5638 5634 5631 5632 5630 5629 5628 5627